Location: Newark
(40.2401°N, 1.4098°W)
Time: 00:41:32
(UTC+00:00)

N. Korean satellite - Pass Details

Date: 27 October 2019
Orbit: 456 x 506 km, 97.2° (Epoch: 20 November)

Event Time Altitude Azimuth Distance (km) Brightness Sun altitude
Rises 04:58:38 0° 33° (NNE) 2,588 10.7 -17.8°
Reaches altitude 10° 05:01:32 10° 58° (ENE) 1,708 10.2 -17.3°
Maximum altitude 05:03:35 14° 92° (E) 1,458 10.2 -16.9°
Drops below altitude 10° 05:05:38 10° 127° (SE) 1,709 10.2 -16.5°
Sets 05:08:32 0° 152° (SSE) 2,592 10.7 -15.9°
